CW8226 Weather Reports


time (UTC)temp
F
wind
direction
speed
knots
gust
knots
rain 1hr
in
rain 24hr
in
rain mn
in
humidity
%
barometer
mb
20260901161144 66 184 1.7 1.7 0.00 0.00 0.00 65 1018.0
20260901160641 65 182 0.0 0.9 0.00 0.00 0.00 68 1018.1
20260901160137 65 198 1.7 1.7 0.00 0.00 0.00 67 1018.2
20260901155636 65 202 0.0 0.9 0.00 0.00 0.00 67 1018.2
20260901155131 65 197 0.9 0.9 0.00 0.00 0.00 69 1018.0
20260901154626 64 206 0.0 0.9 0.00 0.00 0.00 69 1017.7
20260901154121 64 190 0.0 0.0 0.00 0.00 0.00 70 1017.8
20260901153616 64 196 0.0 0.9 0.00 0.00 0.00 70 1017.8
20260901153115 64 199 0.9 1.7 0.00 0.00 0.00 70 1017.8
20260901152611 64 205 0.0 0.9 0.00 0.00 0.00 71 1017.7
20260901152109 63 229 0.9 0.9 0.00 0.00 0.00 71 1017.5
20260901151605 63 192 0.0 0.0 0.00 0.00 0.00 72 1017.6
20260901151104 63 203 0.9 0.9 0.00 0.00 0.00 72 1017.6
20260901150604 62 199 0.9 0.9 0.00 0.00 0.00 73 1017.8
20260901145601 62 192 0.0 0.9 0.00 0.00 0.00 74 1017.5
20260901145100 62 200 1.7 2.6 0.00 0.00 0.00 74 1017.5
20260901144556 62 202 0.0 0.9 0.00 0.00 0.00 75 1017.3
20260901144050 61 192 0.0 0.0 0.00 0.00 0.00 76 1017.4
20260901143546 61 200 0.0 0.0 0.00 0.00 0.00 76 1017.3
20260901143043 61 200 0.0 0.0 0.00 0.00 0.00 76 1017.3
20260901142538 61 194 0.0 0.9 0.00 0.00 0.00 77 1017.1
20260901142038 61 202 0.0 0.9 0.00 0.00 0.00 77 1017.0
20260901141538 60 197 0.0 0.0 0.00 0.00 0.00 77 1017.0
20260901141027 60 189 0.0 0.0 0.00 0.00 0.00 77 1017.0
20260901140526 60 186 0.0 0.9 0.00 0.00 0.00 77 1016.9
20260901140021 60 189 0.0 0.0 0.00 0.00 0.00 77 1016.8
20260901135520 60 189 0.0 0.0 0.00 0.00 0.00 77 1016.7
20260901135016 60 188 0.0 0.0 0.00 0.00 0.00 77 1016.6
20260901134512 60 193 0.0 1.7 0.00 0.00 0.00 77 1016.9
20260901134006 60 189 0.0 0.9 0.00 0.00 0.00 77 1016.6
20260901133505 60 197 0.0 0.9 0.00 0.00 0.00 77 1016.6
20260901133003 60 195 0.0 0.9 0.00 0.00 0.00 77 1016.5
20260901132457 60 189 0.0 0.0 0.00 0.00 0.00 77 1016.5
20260901131956 60 189 0.0 1.7 0.00 0.00 0.00 77 1016.6
20260901131451 60 191 0.9 1.7 0.00 0.00 0.00 77 1016.4
20260901130947 60 190 0.0 0.0 0.00 0.00 0.00 77 1016.5
20260901130441 60 189 0.0 0.0 0.00 0.00 0.00 77 1016.4
20260901125938 60 192 0.0 0.0 0.00 0.00 0.00 77 1016.2
20260901125432 60 170 0.9 1.7 0.00 0.00 0.00 77 1016.4
20260901124927 60 190 0.9 2.6 0.00 0.00 0.00 78 1016.3
20260901124422 60 190 0.9 2.6 0.00 0.00 0.00 78 1016.3
20260901123917 60 188 0.0 0.0 0.00 0.00 0.00 78 1016.4
20260901123412 60 187 0.0 0.9 0.00 0.00 0.00 78 1016.2
20260901122910 60 175 0.9 1.7 0.00 0.00 0.00 79 1016.0
20260901122405 60 188 0.0 0.9 0.00 0.00 0.00 79 1016.3
20260901121904 60 182 0.0 0.0 0.00 0.00 0.00 79 1016.1
20260901121359 60 182 0.9 0.9 0.00 0.00 0.00 79 1016.2
20260901120855 60 188 0.0 0.0 0.00 0.00 0.00 80 1016.3
20260901120349 60 189 0.0 0.0 0.00 0.00 0.00 80 1016.2
20260901115845 60 187 0.0 0.0 0.00 0.00 0.00 80 1016.4
20260901115344 60 189 0.0 0.0 0.00 0.00 0.00 80 1016.4
20260901114843 60 193 0.0 0.0 0.00 0.00 0.00 80 1016.2
20260901114338 60 192 0.9 0.9 0.00 0.00 0.00 80 1016.2
20260901113836 60 183 0.0 0.0 0.00 0.00 0.00 80 1016.3
20260901113335 60 188 0.0 0.0 0.00 0.00 0.00 80 1016.3
20260901112831 60 188 0.0 0.0 0.00 0.00 0.00 80 1016.3
20260901112330 60 188 0.9 0.9 0.00 0.00 0.00 80 1016.3
20260901111825 60 187 0.0 0.0 0.00 0.00 0.00 80 1016.4
20260901111323 60 187 0.0 0.0 0.00 0.00 0.00 80 1016.3
20260901110823 60 194 0.9 0.9 0.00 0.00 0.00 81 1016.6
20260901110318 59 188 0.0 0.9 0.00 0.00 0.00 83 1016.7
20260901105814 59 186 0.9 0.9 0.00 0.00 0.00 84 1016.6
20260901105308 59 192 0.0 0.0 0.00 0.00 0.00 85 1016.6
20260901104804 58 193 0.0 0.0 0.00 0.00 0.00 86 1016.8
20260901104300 58 192 0.0 0.0 0.00 0.00 0.00 86 1016.4
20260901103755 58 185 0.0 0.0 0.00 0.00 0.00 86 1016.2
20260901103249 58 185 0.0 0.0 0.00 0.00 0.00 87 1016.4
20260901102744 58 184 0.0 0.0 0.00 0.00 0.00 87 1016.3
20260901102239 58 187 0.0 0.0 0.00 0.00 0.00 89 1016.3
20260901101735 58 187 0.0 0.0 0.00 0.00 0.00 89 1016.4
20260901101234 58 187 0.0 0.0 0.00 0.00 0.00 89 1016.3
20260901100734 57 187 0.0 0.0 0.00 0.00 0.00 89 1016.2
20260901100229 57 187 0.0 0.0 0.00 0.00 0.00 90 1016.1
20260901095727 57 187 0.0 0.0 0.00 0.00 0.00 90 1016.0
20260901095224 57 187 0.0 0.0 0.00 0.00 0.00 90 1016.3
20260901094719 57 187 0.0 0.0 0.00 0.00 0.00 90 1016.2
20260901094214 57 187 0.0 0.0 0.00 0.00 0.00 90 1016.1
20260901093709 57 195 0.0 0.0 0.00 0.00 0.00 91 1016.1
20260901093208 57 195 0.0 0.0 0.00 0.00 0.00 91 1016.2
20260901092704 57 195 0.0 0.0 0.00 0.00 0.00 91 1016.2
20260901092200 56 196 0.0 0.0 0.00 0.00 0.00 91 1016.0
20260901091655 56 193 0.0 0.0 0.00 0.00 0.00 92 1016.3
20260901091150 56 192 0.0 0.0 0.00 0.00 0.00 93 1016.4
20260901090645 56 193 0.0 0.0 0.00 0.00 0.00 93 1016.2
20260901090140 56 196 0.0 0.0 0.00 0.00 0.00 93 1016.3
20260901085636 55 195 0.0 0.0 0.00 0.00 0.00 94 1016.3
20260901085132 55 195 0.0 0.0 0.00 0.00 0.00 94 1016.1
20260901084628 55 195 0.0 0.0 0.00 0.00 0.00 94 1016.4
20260901084124 55 195 0.0 0.0 0.00 0.00 0.00 94 1016.3
20260901083624 55 195 0.0 0.0 0.00 0.00 0.00 94 1016.2
20260901083122 54 196 0.0 0.0 0.00 0.00 0.00 94 1016.2
20260901082617 54 193 0.0 0.0 0.00 0.00 0.00 94 1016.3
20260901082112 54 195 0.0 0.0 0.00 0.00 0.00 95 1016.2
20260901081608 54 193 0.0 0.0 0.00 0.00 0.00 94 1016.2
20260901081108 54 203 0.0 0.0 0.00 0.00 0.00 94 1016.2
20260901080602 54 195 0.0 0.0 0.00 0.00 0.00 94 1016.3
20260901080101 54 195 0.0 0.9 0.00 0.00 0.00 94 1015.9
20260901075556 53 193 0.0 0.0 0.00 0.00 0.00 94 1016.3
20260901075056 53 189 0.0 0.0 0.00 0.00 0.00 94 1016.1
20260901074556 53 195 0.0 0.0 0.00 0.00 0.00 94 1016.4
20260901074051 54 187 0.0 0.0 0.00 0.00 0.00 94 1016.3
20260901073548 54 195 0.0 0.0 0.00 0.00 0.00 94 1016.4
20260901073048 54 195 0.0 0.0 0.00 0.00 0.00 94 1016.3
20260901072543 53 195 0.0 0.0 0.00 0.00 0.00 94 1016.3
20260901072037 54 197 0.0 0.0 0.00 0.00 0.00 94 1016.2
20260901071532 53 198 0.0 0.0 0.00 0.00 0.00 95 1016.3
20260901071030 53 198 0.0 0.0 0.00 0.00 0.00 94 1016.3
20260901070526 53 201 0.0 0.0 0.00 0.00 0.00 94 1016.6
20260901070021 53 201 0.0 0.0 0.00 0.00 0.00 94 1016.2
20260901065515 53 201 0.0 0.0 0.00 0.00 0.00 94 1016.4
20260901065010 53 194 0.0 0.0 0.00 0.00 0.00 94 1016.1
20260901064507 53 194 0.0 0.0 0.00 0.00 0.00 93 1016.3
20260901064004 53 194 0.0 0.0 0.00 0.00 0.00 93 1016.4
20260901063500 53 194 0.0 0.0 0.00 0.00 0.00 93 1016.2
20260901062955 53 193 0.0 0.0 0.00 0.00 0.00 92 1016.4
20260901062451 53 194 0.0 0.0 0.00 0.00 0.00 92 1016.2
20260901061947 54 194 0.0 0.0 0.00 0.00 0.00 92 1016.4
20260901061443 54 193 0.0 0.0 0.00 0.00 0.00 92 1016.2
20260901060942 55 194 0.0 0.0 0.00 0.00 0.00 92 1016.3
20260901060437 55 194 0.0 0.0 0.00 0.00 0.00 92 1016.4
20260901055932 54 196 0.0 0.0 0.00 0.00 0.00 92 1016.4
20260901055429 55 196 0.0 0.0 0.00 0.00 0.00 92 1016.6
20260901054925 55 196 0.0 0.0 0.00 0.00 0.00 91 1016.4
20260901054422 55 196 0.0 0.0 0.00 0.00 0.00 91 1016.4
20260901053918 55 196 0.0 0.0 0.00 0.00 0.00 91 1016.4
20260901053413 55 196 0.0 0.0 0.00 0.00 0.00 91 1016.6
20260901052908 55 196 0.0 0.0 0.00 0.00 0.00 90 1016.4
20260901052004 56 196 0.0 0.0 0.00 0.00 0.00 90 1016.4
20260901051458 56 196 0.0 0.0 0.00 0.00 0.00 90 1016.4
20260901050957 56 197 0.0 0.0 0.00 0.00 0.00 90 1016.3
20260901050452 56 196 0.0 0.0 0.00 0.00 0.00 90 1016.3
20260901045952 56 196 0.0 0.0 0.00 0.00 0.00 90 1016.2
20260901045447 56 196 0.0 0.0 0.00 0.00 0.00 89 1016.1
20260901044942 56 196 0.0 0.0 0.00 0.00 0.00 89 1016.1
20260901044438 56 196 0.0 0.0 0.00 0.00 0.00 88 1016.1
20260901043934 56 196 0.0 0.0 0.00 0.00 0.00 88 1016.0
20260901043430 57 196 0.0 0.0 0.00 0.00 0.00 88 1016.1
20260901042924 56 196 0.0 0.0 0.00 0.00 0.00 87 1016.0
20260901042424 57 196 0.0 0.0 0.00 0.00 0.00 86 1015.9
20260901041924 57 196 0.0 0.0 0.00 0.00 0.00 86 1016.1
20260901041420 57 197 0.0 0.0 0.00 0.00 0.00 85 1015.8
20260901040919 57 197 0.0 0.0 0.00 0.00 0.00 85 1016.0
20260901040414 58 197 0.0 0.0 0.00 0.00 0.00 84 1015.7
20260901035908 58 197 0.0 0.0 0.00 0.00 0.00 84 1015.8
20260901035407 58 198 0.0 0.0 0.00 0.00 0.00 83 1015.7
20260901034905 59 198 0.0 0.0 0.00 0.00 0.00 83 1015.9
20260901034400 59 198 0.0 0.0 0.00 0.00 0.00 83 1015.6
20260901033855 59 198 0.0 0.0 0.00 0.00 0.00 82 1015.6
20260901033354 60 198 0.0 0.0 0.00 0.00 0.00 81 1015.3
20260901032853 60 197 0.0 0.0 0.00 0.00 0.00 81 1015.3
20260901032352 60 197 0.0 0.0 0.00 0.00 0.00 80 1015.5
20260901031848 60 197 0.0 0.0 0.00 0.00 0.00 79 1015.5
20260901031343 61 197 0.0 0.0 0.00 0.00 0.00 79 1015.3
20260901030843 61 198 0.0 0.0 0.00 0.00 0.00 79 1015.3
20260901030339 61 204 0.9 0.9 0.00 0.00 0.00 78 1015.1
20260901025837 62 203 0.9 0.9 0.00 0.00 0.00 78 1015.2
20260901025332 62 203 0.0 0.0 0.00 0.00 0.00 77 1015.2
20260901024827 62 212 0.9 1.7 0.00 0.00 0.00 76 1015.0
20260901024327 63 195 0.0 0.0 0.00 0.00 0.00 75 1015.1
20260901023825 63 220 0.9 0.9 0.00 0.00 0.00 75 1015.1
20260901023320 63 202 0.9 1.7 0.00 0.00 0.00 74 1015.0
20260901022815 64 187 0.0 1.7 0.00 0.00 0.00 74 1015.2
20260901022311 64 194 0.0 0.0 0.00 0.00 0.00 73 1015.0
20260901021806 64 186 0.0 2.6 0.00 0.00 0.00 72 1014.9
20260901021302 65 193 0.0 1.7 0.00 0.00 0.00 71 1015.1
20260901020756 66 251 2.6 2.6 0.00 0.00 0.00 69 1014.9
20260901020251 67 279 3.5 4.3 0.00 0.00 0.00 68 1015.1
20260901015746 67 162 2.6 5.2 0.00 0.00 0.00 68 1015.1
20260901015242 67 241 0.9 1.7 0.00 0.00 0.00 68 1014.8
20260901014736 67 195 1.7 2.6 0.00 0.00 0.00 69 1014.8
20260901014232 66 189 0.0 1.7 0.00 0.00 0.00 70 1014.8
20260901013728 67 185 0.9 2.6 0.00 0.00 0.00 69 1014.7
20260901013223 68 239 2.6 4.3 0.00 0.00 0.00 67 1014.8
20260901012718 68 219 0.9 5.2 0.00 0.00 0.00 67 1014.9
20260901012218 69 196 1.7 2.6 0.00 0.00 0.00 66 1015.1
20260901011714 68 253 1.7 4.3 0.00 0.00 0.00 67 1014.8
20260901011214 70 237 2.6 5.2 0.00 0.00 0.00 65 1015.0
20260901010708 70 194 0.0 1.7 0.00 0.00 0.00 66 1014.9
20260901010203 70 287 0.9 2.6 0.00 0.00 0.00 65 1015.0
20260901005702 71 227 1.7 2.6 0.00 0.00 0.00 64 1014.9
20260901005158 70 256 1.7 2.6 0.00 0.00 0.00 64 1014.7
20260901004657 69 204 0.9 5.2 0.00 0.00 0.00 67 1014.6
20260901004151 69 249 1.7 6.1 0.00 0.00 0.00 66 1014.8
20260901003646 70 240 1.7 4.3 0.00 0.00 0.00 66 1014.6
20260901003145 69 316 3.5 6.1 0.00 0.00 0.00 67 1014.7
20260901002640 69 166 1.7 5.2 0.00 0.00 0.00 65 1014.7
20260901002134 69 200 0.9 6.1 0.00 0.00 0.00 66 1014.7
20260901001630 69 267 4.3 7.0 0.00 0.00 0.00 64 1014.6
20260901001125 71 267 4.3 6.1 0.00 0.00 0.00 62 1014.6
20260901000620 71 285 3.5 7.0 0.00 0.00 0.00 62 1014.6
20260901000115 71 241 0.9 6.1 0.00 0.00 0.00 63 1014.6
20260831235609 71 196 1.7 2.6 0.00 0.00 0.00 63 1014.6
20260831235105 71 332 1.7 4.3 0.00 0.00 0.00 64 1014.9
20260831234604 71 321 5.2 6.1 0.00 0.00 0.00 63 1014.7
20260831234100 69 215 0.9 4.3 0.00 0.00 0.00 65 1014.6
20260831233555 70 174 3.5 6.1 0.00 0.00 0.00 64 1014.8
20260831233050 70 245 2.6 8.7 0.00 0.00 0.00 64 1015.0
20260831232546 71 229 4.3 7.8 0.00 0.00 0.00 62 1014.9
20260831232041 70 298 1.7 7.0 0.00 0.00 0.00 64 1015.1
20260831231537 70 139 1.7 7.0 0.00 0.00 0.00 64 1015.0
20260831231033 70 199 1.7 6.1 0.00 0.00 0.00 64 1014.7
20260831230528 71 243 4.3 7.0 0.00 0.00 0.00 63 1015.0
20260831230023 71 161 4.3 9.6 0.00 0.00 0.00 64 1014.9
20260831225518 71 237 2.6 9.6 0.00 0.00 0.00 64 1015.0
20260831225018 70 274 2.6 8.7 0.00 0.00 0.00 65 1014.9
20260831224513 72 284 6.1 9.6 0.00 0.00 0.00 64 1015.3
20260831224009 72 262 2.6 4.3 0.00 0.00 0.00 62 1015.2
20260831223504 71 305 0.9 6.1 0.00 0.00 0.00 64 1015.1
20260831223000 73 180 1.7 4.3 0.00 0.00 0.00 61 1015.0
20260831222456 72 208 3.5 6.1 0.00 0.00 0.00 61 1015.3
20260831221955 72 231 0.9 5.2 0.00 0.00 0.00 64 1015.1
20260831221451 72 261 3.5 6.1 0.00 0.00 0.00 63 1015.4
20260831220946 71 136 0.9 7.0 0.00 0.00 0.00 64 1015.4
20260831220442 71 304 3.5 6.1 0.00 0.00 0.00 65 1015.8
20260831215937 70 180 2.6 4.3 0.00 0.00 0.00 66 1015.7
20260831215432 71 197 2.6 4.3 0.00 0.00 0.00 64 1015.7
20260831214928 69 248 1.7 7.0 0.00 0.00 0.00 68 1015.7
20260831214426 71 297 4.3 7.8 0.00 0.00 0.00 66 1015.8
20260831213921 72 284 2.6 6.1 0.00 0.00 0.00 64 1015.7
20260831213418 72 193 0.9 5.2 0.00 0.00 0.00 63 1015.8
20260831212918 71 247 2.6 5.2 0.00 0.00 0.00 66 1015.8
20260831212414 71 260 1.7 4.3 0.00 0.00 0.00 65 1015.9
20260831211913 70 330 2.6 2.6 0.00 0.00 0.00 66 1016.1
20260831211408 71 333 4.3 6.1 0.00 0.00 0.00 65 1016.1
20260831210902 71 233 1.7 2.6 0.00 0.00 0.00 65 1016.2
20260831210358 70 245 1.7 4.3 0.00 0.00 0.00 66 1016.0
20260831205853 70 88 2.6 4.3 0.00 0.00 0.00 67 1016.1
20260831205349 68 208 0.0 1.7 0.00 0.00 0.00 69 1016.2
20260831204843 70 241 2.6 4.3 0.00 0.00 0.00 68 1016.3
20260831204343 69 175 0.9 2.6 0.00 0.00 0.00 68 1016.2
20260831203842 69 185 0.0 7.8 0.00 0.00 0.00 69 1016.0
20260831203336 69 286 3.5 4.3 0.00 0.00 0.00 68 1016.3
20260831202834 69 238 1.7 4.3 0.00 0.00 0.00 68 1016.2
20260831202325 70 255 1.7 4.3 0.00 0.00 0.00 68 1016.4
20260831201824 68 178 1.7 2.6 0.00 0.00 0.00 71 1016.6
20260831201323 68 203 0.9 5.2 0.00 0.00 0.00 71 1016.3
20260831200819 68 210 0.9 1.7 0.00 0.00 0.00 69 1016.3
20260831200314 68 246 1.7 4.3 0.00 0.00 0.00 69 1016.3
20260831195809 69 326 4.3 4.3 0.00 0.00 0.00 68 1016.2
20260831195306 68 163 1.7 4.3 0.00 0.00 0.00 70 1016.4
20260831194754 68 204 0.9 2.6 0.00 0.00 0.00 71 1016.4
20260831194249 67 254 2.6 6.1 0.00 0.00 0.00 72 1016.6
20260831193743 68 298 2.6 4.3 0.00 0.00 0.00 72 1016.6
20260831193239 68 187 0.9 2.6 0.00 0.00 0.00 72 1016.6
20260831192733 66 223 2.6 2.6 0.00 0.00 0.00 74 1016.5
20260831192228 67 230 1.7 5.2 0.00 0.00 0.00 74 1016.7
20260831191725 67 279 1.7 2.6 0.00 0.00 0.00 74 1016.7
20260831191221 67 247 1.7 1.7 0.00 0.00 0.00 73 1016.8
20260831190715 67 169 0.9 4.3 0.00 0.00 0.00 74 1016.7
20260831190215 67 174 0.9 2.6 0.00 0.00 0.00 75 1016.7
20260831185710 66 186 0.9 1.7 0.00 0.00 0.00 75 1016.7
20260831185206 68 179 1.7 1.7 0.00 0.00 0.00 72 1016.8
20260831184705 68 183 0.9 1.7 0.00 0.00 0.00 73 1016.8
20260831184201 67 235 0.0 0.9 0.00 0.00 0.00 73 1017.0
20260831183700 67 255 0.9 1.7 0.00 0.00 0.00 72 1016.9
20260831183200 67 205 0.9 1.7 0.00 0.00 0.00 73 1016.9
20260831182659 65 82 0.9 1.7 0.00 0.00 0.00 76 1016.8
20260831182155 65 82 0.9 1.7 0.00 0.00 0.00 76 1016.8
20260831181649 65 121 0.9 2.6 0.00 0.00 0.00 76 1016.9
20260831181149 65 198 1.7 4.3 0.00 0.00 0.00 77 1016.9
20260831180645 65 261 1.7 1.7 0.00 0.00 0.00 75 1016.9
20260831180139 65 227 0.9 2.6 0.00 0.00 0.00 75 1016.9
20260831175634 65 230 0.9 2.6 0.00 0.00 0.00 76 1016.8
20260831175131 64 259 1.7 4.3 0.00 0.00 0.00 76 1017.0
20260831174631 64 192 0.9 1.7 0.00 0.00 0.00 77 1016.9
20260831174126 64 190 0.9 1.7 0.00 0.00 0.00 77 1017.0
20260831173625 64 201 0.9 0.9 0.00 0.00 0.00 77 1017.1
20260831173121 64 172 0.0 0.9 0.00 0.00 0.00 78 1016.8
20260831172620 64 255 1.7 1.7 0.00 0.00 0.00 77 1017.0
20260831172114 63 193 0.0 0.9 0.00 0.00 0.00 78 1017.0
20260831171610 63 218 0.0 2.6 0.00 0.00 0.00 78 1017.1
20260831171107 63 296 1.7 2.6 0.00 0.00 0.00 78 1017.0
20260831170602 63 221 1.7 2.6 0.00 0.00 0.00 77 1016.9
20260831170100 63 214 0.0 0.0 0.00 0.00 0.00 77 1016.9
20260831165555 64 227 0.9 0.9 0.00 0.00 0.00 77 1016.7
20260831165052 63 228 0.0 0.9 0.00 0.00 0.00 78 1016.7
20260831164548 62 233 0.0 0.9 0.00 0.00 0.00 79 1016.5
20260831164043 62 220 0.9 2.6 0.00 0.00 0.00 79 1016.6
20260831163537 62 187 0.0 0.9 0.00 0.00 0.00 80 1016.5
20260831163033 62 252 1.7 2.6 0.00 0.00 0.00 79 1016.8
20260831162532 62 190 0.9 0.9 0.00 0.00 0.00 79 1016.4
20260831162030 62 195 0.9 1.7 0.00 0.00 0.00 79 1016.4